Weather History for Warrensburg, MO

Change the Weather History Date:

Friday, April 19, 2013

  Actual Average (KSZL) Record (KSZL)
Temperature  
Mean Temperature 42 °F -  
Max Temperature 51 °F 65 °F 82 °F (2002)
Min Temperature 33 °F 46 °F 34 °F (2013)
Degree Days  
Heating Degree Days 23    
Growing Degree Days 0 (Base 50)    
Moisture  
Dew Point 26 °F    
Average Humidity 58    
Maximum Humidity 75    
Minimum Humidity 32    
Precipitation  
Precipitation 0.01 in - - ()
Sea Level Pressure  
Sea Level Pressure 29.97 in    
Wind  
Wind Speed 12 mph (West)    
Max Wind Speed 23 mph    
Max Gust Speed 28 mph    
Visibility 10 miles    
Events      
Averages and records for this station are not official NWS values.
T = Trace of Precipitation, MM = Missing Value Source: NWS Daily Summary

Daily Weather History Graph

Daily Weather History Graph

Search for Another Location

Airport:

Trip Planner

Search our weather history database for the weather conditions in past years. The results will help you decide how hot, cold, wet, or windy it might be!

Date:

Astronomy

Apr. 19, 2013 Rise Set
Actual Time 6:32 AM CDT 7:56 PM CDT
Civil Twilight 6:05 AM CDT 8:24 PM CDT
Nautical Twilight 5:31 AM CDT 8:57 PM CDT
Astronomical Twilight 4:56 AM CDT 9:32 PM CDT
Moon 1:45 PM CDT 2:44 AM CDT
Length of Visible Light 14h 19m
Length of Day
13h 23m
First Quarter, 62% of the Moon is Illuminated
Apr 19
First Quarter
Apr 25
Full
May 2
Last Quarter
May 9
New
May 17
First Quarter

Hourly Weather History & Observations

Time (CDT) Temp. Windchill Dew Point Humidity Pressure Visibility Wind Dir Wind Speed Gust Speed Precip Events Conditions
12:15 AM 37.4 °F 29.3 °F 28.4 °F 70% 29.90 in 10.0 mi West 12.7 mph 18.4 mph N/A   Overcast
12:35 AM 37.4 °F 30.8 °F 28.4 °F 70% 29.90 in 10.0 mi West 9.2 mph 16.1 mph N/A   Overcast
12:55 AM 35.6 °F 26.6 °F 28.4 °F 75% 29.90 in 10.0 mi West 13.8 mph 23.0 mph N/A   Overcast
1:15 AM 35.6 °F 27.1 °F 28.4 °F 75% 29.90 in 10.0 mi West 12.7 mph - N/A   Overcast
1:35 AM 35.6 °F 25.9 °F 28.4 °F 75% 29.90 in 10.0 mi West 16.1 mph 20.7 mph N/A   Overcast
1:55 AM 35.6 °F 27.5 °F 28.4 °F 75% 29.90 in 10.0 mi West 11.5 mph 19.6 mph N/A   Overcast
2:15 AM 35.6 °F 26.2 °F 26.6 °F 70% 29.90 in 10.0 mi West 15.0 mph 24.2 mph N/A   Overcast
2:35 AM 35.6 °F 26.6 °F 26.6 °F 70% 29.90 in 10.0 mi West 13.8 mph - N/A   Overcast
2:55 AM 35.6 °F 26.6 °F 26.6 °F 70% 29.90 in 10.0 mi West 13.8 mph - N/A   Overcast
3:15 AM 33.8 °F 24.3 °F 26.6 °F 75% 29.89 in 10.0 mi West 13.8 mph 23.0 mph N/A   Overcast
3:35 AM 33.8 °F 23.2 °F 26.6 °F 75% 29.90 in 10.0 mi West 17.3 mph 23.0 mph N/A   Overcast
3:55 AM 33.8 °F 25.3 °F 26.6 °F 75% 29.90 in 10.0 mi West 11.5 mph 19.6 mph N/A   Overcast
4:15 AM 33.8 °F 25.3 °F 26.6 °F 75% 29.90 in 10.0 mi West 11.5 mph - N/A   Overcast
4:35 AM 33.8 °F 25.8 °F 26.6 °F 75% 29.90 in 10.0 mi West 10.4 mph - N/A   Overcast
4:55 AM 33.8 °F 25.3 °F 26.6 °F 75% 29.90 in 10.0 mi West 11.5 mph - N/A   Overcast
5:15 AM 33.8 °F 24.8 °F 26.6 °F 75% 29.90 in 10.0 mi West 12.7 mph 19.6 mph N/A   Overcast
5:35 AM 33.8 °F 23.9 °F 26.6 °F 75% 29.91 in 10.0 mi West 15.0 mph 20.7 mph N/A   Overcast
5:55 AM 33.8 °F 25.8 °F 26.6 °F 75% 29.92 in 10.0 mi West 10.4 mph 18.4 mph N/A   Overcast
6:15 AM 33.8 °F 24.3 °F 26.6 °F 75% 29.92 in 10.0 mi West 13.8 mph 18.4 mph N/A   Overcast
6:35 AM 33.8 °F 26.4 °F 26.6 °F 75% 29.93 in 10.0 mi West 9.2 mph 17.3 mph N/A   Overcast
6:55 AM 33.8 °F 24.8 °F 26.6 °F 75% 29.94 in 10.0 mi West 12.7 mph 19.6 mph N/A   Mostly Cloudy
7:15 AM 33.8 °F 25.3 °F 26.6 °F 75% 29.95 in 10.0 mi West 11.5 mph 17.3 mph N/A   Scattered Clouds
7:35 AM 33.8 °F 24.8 °F 26.6 °F 75% 29.96 in 10.0 mi West 12.7 mph 17.3 mph N/A   Clear
7:55 AM 33.8 °F 24.3 °F 26.6 °F 75% 29.96 in 10.0 mi West 13.8 mph 19.6 mph N/A   Clear
8:15 AM 35.6 °F 26.6 °F 26.6 °F 70% 29.96 in 10.0 mi West 13.8 mph 19.6 mph N/A   Clear
8:35 AM 35.6 °F 25.5 °F 26.6 °F 70% 29.97 in 10.0 mi West 17.3 mph - N/A   Clear
8:55 AM 35.6 °F 27.5 °F 26.6 °F 70% 29.97 in 10.0 mi West 11.5 mph - N/A   Clear
9:15 AM 35.6 °F 25.9 °F 26.6 °F 70% 29.97 in 10.0 mi WSW 16.1 mph 19.6 mph N/A   Clear
9:35 AM 37.4 °F 29.8 °F 26.6 °F 65% 29.97 in 10.0 mi West 11.5 mph 21.9 mph N/A   Clear
9:55 AM 37.4 °F 28.2 °F 26.6 °F 65% 29.97 in 10.0 mi West 16.1 mph 21.9 mph N/A   Clear
10:15 AM 39.2 °F 32.0 °F 23.0 °F 52% 29.97 in 10.0 mi West 11.5 mph - N/A   Clear
10:35 AM 41.0 °F 32.8 °F 24.8 °F 53% 29.98 in 10.0 mi WSW 16.1 mph - N/A   Clear
10:55 AM 41.0 °F 33.1 °F 23.0 °F 49% 29.98 in 10.0 mi West 15.0 mph - N/A   Clear
11:15 AM 42.8 °F 35.4 °F 23.0 °F 46% 29.98 in 10.0 mi West 15.0 mph 23.0 mph N/A   Clear
11:35 AM 42.8 °F 35.4 °F 24.8 °F 49% 29.98 in 10.0 mi West 15.0 mph 23.0 mph N/A   Clear
11:55 AM 42.8 °F 34.8 °F 23.0 °F 46% 29.98 in 10.0 mi West 17.3 mph 23.0 mph N/A   Clear
12:15 PM 44.6 °F 38.4 °F 23.0 °F 43% 29.98 in 10.0 mi West 12.7 mph 24.2 mph N/A   Clear
12:35 PM 44.6 °F 38.4 °F 23.0 °F 43% 29.98 in 10.0 mi West 12.7 mph 21.9 mph N/A   Clear
12:55 PM 46.4 °F 40.4 °F 24.8 °F 43% 29.97 in 10.0 mi West 13.8 mph 20.7 mph 0.01 in   Clear
1:15 PM 46.4 °F 39.8 °F 21.2 °F 37% 29.97 in 10.0 mi WSW 16.1 mph 21.9 mph N/A   Clear
1:35 PM 46.4 °F 39.5 °F 23.0 °F 40% 29.97 in 10.0 mi WSW 17.3 mph 25.3 mph N/A   Clear
1:55 PM 48.2 °F - 23.0 °F 37% 29.97 in 10.0 mi West 16.1 mph 26.5 mph N/A   Clear
2:15 PM 48.2 °F - 26.6 °F 43% 29.97 in 10.0 mi WSW 13.8 mph 23.0 mph N/A   Scattered Clouds
2:35 PM 48.2 °F - 21.2 °F 34% 29.98 in 10.0 mi West 23.0 mph 26.5 mph N/A   Clear
2:55 PM 50.0 °F - 23.0 °F 35% 29.97 in 10.0 mi West 13.8 mph - N/A   Scattered Clouds
3:15 PM 50.0 °F - 21.2 °F 32% 29.97 in 10.0 mi WSW 17.3 mph 26.5 mph N/A   Scattered Clouds
3:35 PM 48.2 °F - 21.2 °F 34% 29.97 in 10.0 mi West 10.4 mph 21.9 mph N/A   Mostly Cloudy
3:55 PM 50.0 °F - 23.0 °F 35% 29.97 in 10.0 mi West 17.3 mph 27.6 mph N/A   Scattered Clouds
4:15 PM 51.8 °F - 23.0 °F 33% 29.97 in 10.0 mi West 16.1 mph 23.0 mph N/A   Mostly Cloudy
4:35 PM 51.8 °F - 23.0 °F 33% 29.98 in 10.0 mi West 20.7 mph 27.6 mph N/A   Mostly Cloudy
4:55 PM 51.8 °F - 23.0 °F 33% 29.99 in 10.0 mi West 18.4 mph 25.3 mph N/A   Scattered Clouds
5:55 PM 50.0 °F - 23.0 °F 35% 30.01 in 10.0 mi WNW 12.7 mph 18.4 mph N/A   Scattered Clouds
6:55 PM 50.0 °F - 26.6 °F 40% 30.02 in 10.0 mi WNW 8.1 mph - N/A   Mostly Cloudy
7:15 PM 50.0 °F - 26.6 °F 40% 30.02 in 10.0 mi WNW 11.5 mph 16.1 mph N/A   Mostly Cloudy
7:35 PM 46.4 °F 43.5 °F 26.6 °F 46% 30.02 in 10.0 mi West 5.8 mph - N/A   Scattered Clouds
7:55 PM 44.6 °F 43.1 °F 28.4 °F 53% 30.03 in 10.0 mi West 3.5 mph - N/A   Clear
8:15 PM 44.6 °F - 26.6 °F 49% 30.04 in 10.0 mi Calm Calm - N/A   Scattered Clouds
8:35 PM 44.6 °F - 26.6 °F 49% 30.04 in 10.0 mi Calm Calm - N/A   Clear
8:55 PM 44.6 °F - 28.4 °F 53% 30.05 in 10.0 mi Calm Calm - N/A   Clear
9:15 PM 42.8 °F - 28.4 °F 57% 30.06 in 10.0 mi Calm Calm - N/A   Clear
9:35 PM 41.0 °F - 28.4 °F 61% 30.07 in 10.0 mi Calm Calm - N/A   Clear
9:55 PM 42.8 °F - 26.6 °F 53% 30.08 in 10.0 mi Calm Calm - N/A   Clear
10:15 PM 42.8 °F - 28.4 °F 57% 30.08 in 10.0 mi Calm Calm - N/A   Clear
10:35 PM 42.8 °F 41.1 °F 26.6 °F 53% 30.08 in 10.0 mi NW 3.5 mph - N/A   Clear
10:55 PM 41.0 °F 39.0 °F 26.6 °F 57% 30.09 in 10.0 mi NW 3.5 mph - N/A   Clear
11:15 PM 41.0 °F 38.0 °F 28.4 °F 61% 30.09 in 10.0 mi NW 4.6 mph - N/A   Clear
11:35 PM 39.2 °F 37.0 °F 28.4 °F 65% 30.09 in 10.0 mi NW 3.5 mph - N/A   Clear
11:55 PM 37.4 °F - 28.4 °F 70% 30.10 in 10.0 mi Calm Calm - N/A   Clear